Simultaneous Nadir Overpasses (SNOs) Predictions

Prediction of SNOs between NOAA-20 and LANDSAT-9 Satellite Orbit:

Table of predicted SNOs for the next 14.0 days since TLE Epoch: 6/22/2024
Index Date (NOAA-20) Time (NOAA-20) Lat,Lon (NOAA-20) SZA (NOAA-20 ) Date (LANDSAT-9) Time (LANDSAT-9) Lat,Lon (LANDSAT-9) SZA (LANDSAT-9 ) Distance(km) Time Diff (sec)
1 06/24/2024 06:19:12 70.25, 81.25 46.83 06/24/2024 06:20:15 70.26, 81.30 46.82 1.96 63
2 06/24/2024 07:09:53 -70.14,-111.24 133.30 06/24/2024 07:09:45 -70.14,-111.24 133.30 0.28 8
3 06/24/2024 08:00:29 69.58, 56.89 46.13 06/24/2024 07:59:19 69.65, 55.73 46.24 45.61 70
4 06/26/2024 22:35:57 70.20,-162.86 46.86 06/26/2024 22:36:39 70.18,-162.91 46.84 2.49 42
5 06/26/2024 23:26:39 -70.13, 4.56 133.21 06/26/2024 23:26:08 -70.12, 4.63 133.22 2.80 31
6 06/29/2024 14:02:15 -71.11, 144.15 132.04 06/29/2024 14:03:22 -71.00, 146.57 132.24 87.86 67
7 06/29/2024 14:52:44 70.20, -47.07 47.01 06/29/2024 14:53:02 70.19, -47.01 46.99 2.65 18
8 06/29/2024 15:43:25 -70.08, 120.44 133.12 06/29/2024 15:42:32 -70.07, 120.46 133.13 1.09 53
9 07/02/2024 06:18:46 -70.28, -98.70 132.73 07/02/2024 06:19:58 -70.28, -98.63 132.75 2.71 72
10 07/02/2024 07:09:30 70.16, 68.80 47.15 07/02/2024 07:09:25 70.17, 68.86 47.15 2.55 5
11 07/02/2024 08:00:09 -69.93,-123.53 133.09 07/02/2024 07:58:56 -70.00,-123.75 133.01 11.08 73
12 07/04/2024 22:35:32 -70.24, 17.16 132.53 07/04/2024 22:36:21 -70.23, 17.21 132.56 2.29 49
13 07/04/2024 23:26:16 70.12,-175.35 47.35 07/04/2024 23:25:48 70.12,-175.31 47.34 1.73 28



Historial Predications of SNOs between NOAA-20 and LANDSAT-9
